Regional Weather Roundup
Issued by NWS Green Bay, WI

Home | Current Version | Previous Version | Graphics & Text | Print | Product List | Glossary Off
Versions: 1 2 3 4 5 6 7 8 9 10 11 12 13 14 15 16 17 18 19 20 21 22 23 24 25 26 27 28 29 30 31 32 33 34 35 36 37 38 39 40 41 42 43 44 45 46 47 48 49 50

000
ASUS43 KGRB 060810
RWRGRB

NORTH-CENTRAL AND NORTHEAST WISCONSIN REGIONAL WEATHER ROUNDUP
NATIONAL WEATHER SERVICE GREEN BAY WI
200 AM CST FRI MAR 06 2015

WIZ005-009-010>012-018-019-060900-
NORTH CENTRAL WISCONSIN

CITY           SKY/WX    TMP DP  RH WIND       PRES   REMARKS
IRONWOOD       CLEAR      5  -2  72 SW10G18   30.12F WCI -10
MANITOWISH WTR PTCLDY    -1  -7  75 S8        30.16F WCI -15
ARBOR VITAE    PTCLDY    -1  -8  73 S5        30.17F WCI -11
EAGLE RIVER    PTCLDY    -2 -11  66 CALM      30.18F
LAND O LAKES   PTCLDY    -2  -8  74 S3        30.17F
RHINELANDER    PTCLDY    -2 -10  69 SW7       30.20F WCI -15
PHILLIPS       PTCLDY    -1  -7  78 S7        30.20F WCI -15
ANTIGO         PTCLDY    -7 -13  76 SW8       30.24F WCI -23
TOMAHAWK       MOCLDY    -6 -11  79 CALM      30.23F
MERRILL        MOCLDY   -14 -19  77 CALM      30.25F
$$

WIZ013-073-060900-
NORTHEAST WISCONSIN

CITY           SKY/WX    TMP DP  RH WIND       PRES   REMARKS
IRON MOUNTAIN  PTCLDY     3 -10  54 SW5       30.22F WCI  -6
MARINETTE      PTCLDY     3  -9  55 SW9       30.33F WCI -11
OCONTO         PTCLDY    -4 -11  72 CALM      30.36F
$$

WIZ017-030-035>037-045-060900-
CENTRAL WISCONSIN

CITY           SKY/WX    TMP DP  RH WIND       PRES   REMARKS
MEDFORD        PTCLDY    -3  -8  79 S7        30.23F WCI -16
WAUSAU         PTCLDY     0  -8  69 CALM      30.27F
MOSINEE        MOCLDY    -2  -8  78 S9        30.29F WCI -18
MARSHFIELD     PTCLDY     0  -7  72 SW6       30.28F WCI -12
WISC RAPIDS    MOCLDY     0  -8  69 S6        30.34F WCI -12
STEVENS POINT  MOCLDY    -3  -9  77 S6        30.32F WCI -15
WAUPACA        MOCLDY     2  -7  65 S3        30.37F
SHAWANO        PTCLDY     5  -6  61 CALM      30.34F
CLINTONVILLE   PTCLDY     1  -8  66 S6        30.35F WCI -10
$$

WIZ038-039-048-051-060900-
FOX VALLEY

CITY           SKY/WX    TMP DP  RH WIND       PRES   REMARKS
NWS GREEN BAY  PTCLDY     3  -7  63 SW5       30.37F WCI  -6
APPLETON       PTCLDY     3  -8  60 SW8       30.36F WCI -10
OSHKOSH        PTCLDY     2  -7  66 S6        30.39S WCI  -9
FOND DU LAC      N/A      4  -6  63 SW9       30.40F WCI -10
$$

WIZ022-050-052-060900-
EAST CENTRAL WISCONSIN

CITY           SKY/WX    TMP DP  RH WIND       PRES   REMARKS
STURGEON BAY   PTCLDY     7  -8  51 SW9       30.36F WCI  -7
MANITOWOC      PTCLDY     3  -4  72 SW5       30.40F WCI  -6
SHEBOYGAN      PTCLDY     1  -8  66 SW8       30.40F WCI -13
$$

LMZ563-521-522-541>543-060900-
LAKESHORE

STATION/POSITION TIME  TEMP    WIND        PRES    VSBY  WAVE
                       AIR SEA DIR/SP/G                  HT/PER
                 (UTC) (F)     (DEG/KT/KT) (MB)    (MI)  (FT/S)
SHEBOYGAN LKSHOR 0800    7     230/ 10/ 13 1031.8F
KEWAUNEE LKSHORE 0800    4     250/  3/  6 1027.9F
NORTHPORT PIER   0800    8     240/  6/ 11 1027.4S
SISTER BAY LKSHO 0700    5     260/ 10/ 12   N/A
CHAMBERS ISLAND  0800    2     180/  4/  8 1027.4F
MENOMINEE LKSHOR 0800    4     210/  8     1028.1F
$$


USA.gov is the U.S. government's official web portal to all federal, state and local government web resources and services.